Temperature
24 25 26 26 27 27 27 27 27 28 28 27 27 27 28 27 26 26 25 25 24 23 22 21 20 19 19 19 19 18 18 18 17 17 16 16 16 16 16 16 16 16 16 16
24 25 26 27 27 26 26 26 27 27 27 27 27 27 27 27 26 26 25 24 24 23 22 21 20 19 19 19 18 18 18 17 17 17 17 16 16 16 16 16 16 16 16 16
25 27 27 26 26 26 26 26 27 27 27 27 27 27 27 27 26 25 25 24 24 23 22 21 20 19 19 18 18 18 18 17 17 17 16 16 16 16 15 16 16 16 16 15
26 27 26 26 26 26 26 27 27 26 26 27 27 26 27 27 26 26 25 24 23 22 22 21 20 19 19 18 18 18 18 17 17 17 16 16 16 16 16 16 16 15 15 15
26 26 26 25 26 26 27 27 27 26 26 26 27 27 27 27 26 26 25 24 23 22 22 21 20 19 19 18 18 17 17 17 17 16 16 16 16 16 16 15 15 15 15 15
26 27 26 26 27 27 27 26 26 26 26 25 26 26 26 27 26 26 25 23 22 22 21 20 20 19 18 18 17 17 17 17 16 16 16 16 16 16 15 15 15 15 15 15
25 26 26 26 26 26 26 25 25 25 25 26 26 26 26 26 26 25 25 23 22 21 21 20 19 19 18 17 17 17 16 16 16 16 16 16 16 15 15 15 15 15 15 15
25 25 26 26 26 25 25 25 24 24 25 26 26 26 26 26 25 24 23 22 21 21 20 20 19 18 18 17 17 17 16 16 16 16 16 15 15 15 15 15 15 15 15 15
25 25 26 26 26 26 25 25 26 25 26 25 26 26 25 25 24 24 23 22 21 20 19 19 18 18 17 17 16 16 16 16 16 15 15 15 15 15 14 14 14 14 14 14
25 24 25 26 26 26 26 26 25 25 24 24 25 25 25 24 24 24 23 22 21 19 19 18 18 17 17 16 16 16 16 15 15 15 15 15 15 14 14 14 14 14 14 14
24 23 24 25 24 25 24 25 25 25 25 24 24 25 25 24 23 23 23 22 20 19 18 18 17 17 16 16 16 15 15 15 15 15 15 15 14 14 14 14 14 14 14 14
23 23 24 25 25 25 25 25 24 24 24 24 24 24 24 23 23 22 22 21 20 19 18 17 17 16 16 16 16 15 15 15 15 15 15 15 14 14 14 14 14 14 14 14
22 22 22 23 24 24 24 24 24 24 24 24 24 23 23 22 22 21 21 20 19 18 17 17 16 16 16 15 15 15 15 15 15 14 14 14 14 14 14 14 14 14 14 14
21 22 22 23 23 24 23 23 24 24 24 23 23 23 23 22 22 21 20 19 19 18 17 16 16 15 15 15 15 15 15 14 14 14 14 14 14 14 14 14 14 14 14 13
21 21 22 22 23 23 23 23 23 23 23 23 23 23 22 22 21 20 19 19 18 17 17 16 15 15 14 14 14 14 14 14 14 14 14 14 14 14 14 14 14 14 14 13
20 20 21 21 22 22 22 22 23 22 23 23 22 22 22 21 20 19 18 18 17 17 16 16 15 15 14 14 14 14 14 14 14 14 14 14 13 13 14 14 13 13 13 13
20 19 20 21 22 22 21 21 22 22 21 22 21 21 21 20 19 18 18 17 17 16 16 15 15 14 14 14 14 14 14 13 13 13 13 14 13 13 13 13 13 13 13 13
18 19 20 20 20 19 20 22 22 21 21 21 21 20 20 19 18 17 17 16 16 16 15 15 15 14 14 14 13 13 13 13 13 13 13 13 13 13 13 13 13 13 13 13
18 18 19 20 19 19 20 21 21 20 19 19 19 19 19 18 18 17 16 15 15 15 14 14 14 14 14 14 13 13 13 13 13 13 13 13 13 13 13 13 13 13 13 13
18 18 19 19 19 18 19 20 19 20 19 19 18 18 18 18 19 18 15 15 14 14 14 14 13 13 13 13 13 13 13 13 13 13 13 13 13 13 13 13 13 13 13 13
17 17 18 18 18 18 18 18 19 18 18 17 17 17 17 17 17 15 14 14 14 13 13 13 13 13 13 13 13 13 13 13 13 13 13 13 13 13 13 13 13 12 12 12
17 17 17 18 17 17 17 17 17 17 16 16 16 16 16 15 15 14 14 13 13 13 13 13 13 12 12 12 13 13 12 12 12 12 12 12 12 12 12 12 12 12 12 12
16 16 17 17 17 16 15 16 15 15 15 15 15 15 15 14 14 14 13 13 13 13 12 12 12 12 12 12 12 12 12 12 12 12 12 12 12 12 12 12 12 12 12 12
15 14 15 15 16 15 15 15 14 14 14 14 14 14 14 14 14 13 13 13 12 12 12 12 12 12 12 12 12 12 12 12 12 12 11 11 12 12 11 11 12 12 12 12
14 14 14 14 15 15 14 14 14 14 14 14 14 14 14 14 13 13 12 12 12 12 12 12 12 12 12 12 11 11 11 11 11 11 11 11 11 11 11 11 11 11 11 12
14 13 14 14 14 14 13 13 13 13 13 13 13 13 13 13 13 12 12 12 12 11 11 11 11 11 11 11 11 11 11 11 11 11 11 11 11 11 11 11 11 11 11 11
Wind_Speed
10 12 13 12 13 13 11 12 12 9 6 8 11 12 9 8 9 9 9 9 9 8 8 8 8 9 9 10 11 11 11 10 9 7 7 6 6 6 5 5 5 5 5 5
11 16 15 12 12 13 13 14 13 8 6 8 10 11 9 8 9 9 9 9 9 8 8 8 8 8 9 10 11 11 11 11 10 8 6 6 6 6 5 5 5 5 5 5
17 9 9 12 13 14 15 14 12 10 9 10 11 11 8 7 7 8 8 8 8 8 8 9 9 9 10 11 11 10 11 11 10 9 7 5 5 5 5 5 5 5 5 5
14 11 10 13 14 14 14 11 11 11 12 9 8 9 7 7 8 8 8 8 7 7 7 7 9 10 11 11 11 11 11 11 10 9 8 8 7 6 5 5 4 5 6 5
10 10 12 14 13 13 12 8 10 12 13 12 11 11 7 8 8 8 7 7 6 6 7 8 8 9 10 10 10 11 11 10 10 10 9 8 7 6 5 4 4 4 5 5
13 9 10 11 10 11 9 9 10 12 12 13 10 10 8 6 6 6 6 5 5 6 6 7 7 8 8 9 9 10 11 10 10 9 9 9 8 7 6 5 5 5 4 4
12 12 11 9 10 10 10 10 8 9 10 10 6 9 6 2 3 4 5 6 5 5 6 7 7 8 8 9 9 10 10 10 10 10 9 9 8 8 7 7 6 5 4 4
10 10 10 10 11 9 11 12 10 8 9 8 8 8 4 3 2 3 3 4 5 5 5 6 7 7 8 8 9 9 10 9 9 9 9 8 8 6 6 6 5 6 5 5
8 8 7 9 10 11 11 13 11 11 11 10 7 6 5 4 3 3 4 4 5 5 5 6 6 7 7 8 8 8 8 8 8 8 7 7 7 6 6 6 6 6 5 5
8 8 8 8 9 12 12 10 9 10 10 10 9 9 5 4 4 3 4 4 5 5 5 5 6 6 6 7 7 7 7 8 7 7 6 6 7 6 6 5 6 6 6 5
9 9 8 9 11 12 12 12 10 10 11 10 10 5 0 1 2 3 3 3 4 5 5 5 5 6 6 7 7 7 7 7 7 6 6 6 6 6 6 5 5 6 5 6
8 7 10 12 9 8 11 12 11 11 10 10 10 5 2 1 1 1 2 3 4 4 5 5 5 5 6 6 6 6 6 6 6 6 5 6 6 6 6 6 5 5 5 6
4 6 8 9 10 10 10 11 12 12 10 10 10 5 3 2 1 1 1 2 4 5 5 5 5 5 5 5 5 6 5 5 5 5 5 5 6 6 6 5 5 5 5 5
5 7 10 10 6 7 9 10 11 12 11 10 10 7 3 1 1 1 1 2 4 5 5 5 5 5 4 4 5 5 5 5 5 5 5 5 5 5 5 5 5 5 5 5
4 8 9 8 6 6 7 9 10 11 11 11 9 8 5 3 1 1 1 2 3 4 5 5 5 5 5 4 4 4 4 5 5 4 4 4 4 4 4 5 5 5 5 5
3 6 8 9 8 8 8 9 9 10 10 10 9 7 3 1 0 1 1 3 4 4 4 5 5 5 5 5 5 4 4 4 5 5 4 4 4 4 4 4 4 4 4 4
4 5 8 10 9 9 10 9 9 8 8 9 8 5 1 1 1 1 2 2 3 3 3 4 4 5 5 5 4 5 5 4 5 5 5 4 4 4 4 4 4 4 4 4
6 7 6 8 7 10 5 3 5 6 6 5 4 2 1 1 0 0 1 1 1 1 2 2 4 4 4 5 4 4 5 5 4 5 5 5 4 4 3 4 4 4 4 4
7 7 6 7 9 7 5 2 4 6 5 3 3 2 1 1 2 2 2 1 0 0 1 2 3 4 4 5 5 4 4 4 4 4 4 5 4 4 4 4 4 4 4 4
6 6 7 7 9 8 3 3 4 4 5 1 2 2 2 2 3 0 2 2 2 1 0 1 2 3 3 4 4 5 4 4 4 3 3 4 4 4 4 4 4 4 4 4
5 6 8 9 8 4 3 4 2 5 1 2 1 1 1 1 2 1 1 2 2 2 1 2 2 3 3 3 4 4 4 4 3 3 3 3 3 4 4 4 4 4 4 4
4 5 6 6 7 3 4 1 1 2 4 2 2 1 0 2 2 2 2 1 1 1 1 2 3 3 2 3 3 4 3 2 2 2 2 1 1 2 2 3 3 4 4 5
2 3 3 3 2 2 3 2 3 3 3 3 2 2 0 1 1 1 1 1 1 1 1 1 2 3 2 2 2 3 2 2 2 2 2 1 1 1 1 2 3 3 3 3
1 3 2 2 1 2 2 2 3 3 3 3 2 1 0 1 1 1 1 2 2 2 2 2 2 3 2 2 2 2 2 2 2 2 2 1 1 1 1 2 2 2 2 3
3 2 3 3 3 2 2 4 6 5 4 2 2 1 1 1 1 1 2 2 2 2 2 2 2 2 2 2 2 1 2 3 2 2 2 2 1 1 1 1 2 2 2 2
3 4 4 4 3 4 4 5 5 5 4 3 1 1 1 1 2 2 2 2 2 2 2 2 2 2 2 2 2 1 2 2 2 2 2 2 2 1 1 1 1 1 1 1
Wind_Direction
196 220 226 228 234 255 267 264 265 264 258 256 258 261 253 235 229 224 217 211 208 205 194 185 184 185 184 181 178 179 180 176 175 176 180 178 174 171 169 173 172 177 182 181
206 226 234 239 242 247 252 258 262 259 253 261 266 264 252 235 228 219 213 209 206 200 190 186 187 186 184 181 180 178 180 177 180 178 178 180 176 174 170 173 175 185 189 195
223 232 222 230 236 241 246 251 259 267 272 252 259 253 230 211 209 207 211 211 206 201 198 192 189 189 186 183 181 178 178 177 181 177 174 167 171 173 172 177 180 187 193 197
236 238 228 231 237 238 247 247 255 262 264 260 246 261 231 208 208 208 207 206 206 201 201 197 191 188 187 182 179 175 173 175 176 177 180 180 185 188 184 185 182 189 196 199
231 229 229 237 239 237 247 256 254 257 257 263 246 255 239 201 215 211 207 208 205 200 194 189 189 187 184 179 174 173 170 172 176 184 184 190 194 191 184 184 178 191 193 202
248 241 239 243 241 239 244 248 247 244 245 246 244 252 247 213 220 213 201 203 202 193 183 177 172 172 175 175 172 170 169 171 177 184 189 195 192 190 187 188 188 197 199 203
235 231 227 233 233 220 226 237 237 231 228 240 220 243 244 230 223 228 210 197 193 186 177 168 164 164 166 169 171 171 168 172 177 185 189 192 193 192 195 199 198 207 208 209
234 228 211 214 226 225 218 233 242 249 245 245 218 237 223 184 192 208 204 186 181 176 171 166 163 165 165 166 169 168 169 172 177 184 188 190 194 198 199 204 211 211 218 218
238 234 201 208 220 230 219 228 251 262 261 261 238 222 212 190 187 190 182 172 177 175 168 165 160 163 162 163 168 168 165 168 173 178 180 187 193 199 199 200 210 213 216 216
248 254 233 210 219 224 237 232 235 244 249 254 249 236 238 209 204 198 196 183 169 166 164 159 158 160 160 160 163 166 167 171 172 175 181 181 184 191 199 204 206 213 214 217
243 245 235 214 219 225 217 221 230 242 249 256 258 252 286 210 224 221 209 188 169 165 162 157 155 156 155 154 157 165 167 169 175 180 182 184 185 188 195 200 208 212 216 217
231 245 246 235 223 229 228 231 229 241 246 250 260 264 75 137 194 212 208 168 160 161 159 151 147 150 153 151 153 158 166 174 179 180 181 186 187 190 194 197 205 209 213 219
219 230 239 228 214 212 223 228 232 240 251 252 252 250 112 143 163 174 174 158 157 160 155 150 147 150 153 155 159 161 170 177 180 179 181 182 188 193 195 197 202 207 211 216
236 237 247 256 255 220 221 227 230 235 240 246 248 254 252 236 249 208 168 167 164 162 160 156 156 159 156 155 161 168 175 173 175 181 182 183 189 194 194 195 200 207 211 214
245 243 245 259 269 258 243 242 235 236 247 253 256 261 282 279 264 256 216 182 174 171 167 170 167 160 161 164 169 170 173 173 173 180 183 186 188 190 190 197 202 207 215 219
252 250 247 245 236 237 252 254 244 243 248 251 258 267 312 358 337 228 219 194 189 187 186 181 172 166 171 177 183 183 183 177 180 187 190 185 188 188 193 201 205 211 217 224
246 242 244 246 239 240 244 251 246 242 248 249 252 265 286 145 119 238 226 200 197 202 193 187 182 181 179 184 191 193 192 185 190 193 190 186 188 193 199 202 205 217 223 225
247 248 246 249 241 240 250 250 236 232 239 253 254 278 199 174 219 263 152 146 164 214 212 198 191 184 179 180 186 189 187 187 193 196 194 194 197 198 206 209 214 225 228 227
230 236 245 240 236 242 240 252 253 233 235 267 265 258 207 138 150 124 72 51 327 273 230 207 191 178 177 178 180 181 184 189 196 200 203 201 200 202 213 223 225 230 227 227
199 222 239 240 240 245 271 331 300 242 230 301 274 235 208 214 236 143 36 11 4 20 76 150 162 164 167 174 176 179 183 187 195 201 205 206 210 212 221 228 232 230 229 231
198 210 230 240 244 249 336 329 265 226 283 18 315 234 197 255 333 73 24 22 10 17 70 127 143 154 156 167 177 185 185 191 196 192 194 205 221 225 224 225 228 232 232 235
243 230 226 232 239 249 12 19 262 348 15 23 16 360 23 47 75 101 94 71 44 37 79 124 136 137 149 161 173 176 177 184 189 178 173 186 223 249 234 227 226 231 232 230
270 303 284 265 268 30 30 31 32 9 8 13 1 346 55 122 110 102 89 74 74 82 95 124 138 140 150 163 166 164 157 171 188 180 174 185 210 241 263 249 231 225 229 242
299 354 290 270 284 334 351 1 354 353 350 350 358 5 128 126 105 85 79 85 91 102 116 131 140 142 143 146 142 141 149 160 182 185 190 200 208 209 247 278 265 249 249 251
311 304 293 271 289 307 325 352 350 345 344 356 17 38 72 113 116 93 90 93 98 108 111 128 135 135 133 125 119 138 146 156 171 182 185 211 222 190 233 271 299 272 265 282
291 286 285 293 335 314 317 333 332 333 334 332 0 50 90 112 115 107 101 92 109 113 111 108 113 107 99 106 121 127 133 147 174 194 204 221 235 229 248 248 254 2 265 164
Height
1490 1490 1484 1481 1481 1479 1479 1479 1478 1474 1472 1476 1475 1473 1472 1474 1477 1478 1480 1483 1485 1488 1491 1492 1494 1495 1497 1498 1500 1501 1503 1505 1507 1510 1512 1514 1516 1517 1519 1521 1522 1524 1525 1526
1487 1484 1478 1477 1478 1479 1480 1480 1476 1472 1471 1474 1472 1470 1468 1471 1473 1475 1478 1480 1483 1486 1488 1490 1491 1493 1494 1495 1497 1499 1501 1503 1506 1508 1510 1512 1515 1516 1518 1520 1521 1522 1524 1525
1478 1472 1474 1477 1478 1479 1477 1476 1474 1474 1471 1470 1472 1469 1466 1467 1471 1474 1476 1478 1480 1483 1485 1487 1489 1490 1492 1493 1495 1498 1499 1502 1504 1507 1509 1511 1513 1515 1517 1518 1519 1521 1522 1523
1472 1469 1473 1474 1473 1473 1475 1469 1471 1473 1474 1469 1469 1473 1464 1463 1467 1470 1473 1475 1478 1480 1482 1484 1486 1487 1489 1491 1493 1495 1498 1500 1502 1505 1507 1509 1511 1513 1514 1516 1518 1519 1520 1521
1467 1466 1469 1470 1468 1468 1467 1466 1468 1469 1470 1470 1464 1468 1461 1460 1464 1466 1469 1472 1475 1477 1479 1481 1483 1485 1487 1490 1492 1494 1496 1498 1501 1503 1505 1507 1510 1511 1513 1514 1516 1517 1518 1519
1463 1463 1464 1464 1464 1465 1465 1468 1467 1466 1465 1474 1464 1466 1463 1456 1460 1463 1467 1470 1473 1475 1477 1479 1481 1483 1486 1488 1490 1492 1494 1496 1499 1501 1503 1505 1506 1509 1511 1512 1514 1515 1516 1517
1463 1460 1460 1462 1463 1464 1466 1471 1475 1475 1472 1467 1458 1464 1462 1455 1458 1462 1465 1468 1472 1473 1475 1477 1479 1481 1483 1486 1488 1490 1492 1494 1496 1498 1500 1502 1504 1506 1507 1509 1511 1513 1514 1515
1463 1461 1456 1458 1460 1461 1463 1466 1474 1478 1471 1461 1458 1461 1456 1455 1459 1463 1465 1467 1470 1472 1474 1476 1478 1480 1482 1484 1486 1488 1490 1492 1494 1496 1498 1500 1501 1504 1505 1507 1509 1510 1511 1512
1458 1458 1451 1454 1456 1457 1460 1460 1455 1461 1460 1463 1456 1455 1454 1455 1458 1461 1463 1466 1469 1471 1473 1475 1477 1479 1481 1483 1485 1487 1488 1490 1492 1494 1495 1497 1498 1500 1502 1504 1506 1508 1508 1510
1455 1460 1451 1452 1454 1454 1453 1453 1459 1462 1470 1471 1461 1457 1457 1455 1457 1459 1462 1464 1468 1471 1473 1474 1476 1478 1480 1482 1483 1485 1487 1489 1491 1492 1493 1495 1496 1497 1499 1501 1503 1504 1505 1507
1455 1460 1454 1452 1454 1452 1455 1456 1456 1454 1454 1464 1467 1460 1450 1454 1456 1458 1461 1463 1466 1469 1472 1474 1476 1477 1479 1481 1482 1484 1486 1487 1489 1490 1491 1493 1494 1495 1497 1498 1500 1501 1503 1504
1455 1455 1454 1449 1445 1446 1448 1450 1454 1461 1458 1454 1457 1461 1451 1454 1457 1459 1461 1463 1466 1469 1471 1473 1475 1476 1478 1479 1481 1483 1484 1486 1487 1488 1489 1490 1491 1493 1494 1496 1497 1499 1500 1501
1457 1458 1460 1454 1452 1449 1448 1448 1450 1451 1453 1454 1459 1461 1453 1456 1457 1459 1461 1464 1466 1468 1470 1472 1474 1475 1477 1479 1480 1482 1483 1484 1486 1487 1488 1488 1489 1491 1492 1494 1495 1496 1497 1498
1458 1455 1456 1456 1448 1445 1449 1448 1447 1449 1452 1453 1453 1454 1453 1455 1456 1458 1461 1464 1466 1468 1470 1471 1473 1475 1476 1478 1479 1481 1482 1483 1484 1486 1486 1487 1488 1489 1490 1491 1493 1494 1495 1496
1457 1454 1450 1449 1447 1446 1447 1447 1447 1448 1447 1450 1450 1451 1453 1455 1457 1460 1462 1463 1465 1467 1469 1470 1472 1473 1475 1476 1478 1479 1481 1482 1483 1484 1485 1486 1487 1488 1489 1490 1491 1492 1493 1493
1457 1455 1452 1452 1448 1448 1450 1447 1446 1447 1447 1448 1449 1452 1453 1456 1458 1460 1462 1463 1465 1466 1468 1469 1471 1472 1473 1475 1476 1477 1479 1480 1481 1482 1483 1484 1485 1486 1487 1488 1489 1489 1490 1491
1455 1456 1455 1451 1445 1447 1452 1447 1445 1447 1448 1449 1451 1453 1454 1457 1459 1461 1462 1462 1464 1466 1467 1468 1470 1471 1472 1473 1475 1476 1477 1479 1480 1481 1482 1483 1483 1484 1485 1486 1487 1487 1488 1488
1457 1456 1452 1450 1452 1461 1451 1442 1444 1447 1449 1449 1450 1453 1455 1458 1460 1461 1462 1463 1464 1465 1466 1467 1468 1470 1471 1472 1474 1475 1476 1477 1478 1479 1480 1481 1482 1483 1484 1484 1485 1485 1485 1485
1455 1455 1452 1451 1452 1451 1447 1445 1446 1448 1450 1451 1452 1454 1456 1458 1459 1460 1462 1462 1463 1464 1465 1466 1467 1468 1469 1471 1472 1473 1475 1476 1476 1477 1478 1479 1480 1481 1481 1482 1482 1482 1482 1483
1454 1454 1453 1450 1454 1456 1450 1446 1447 1449 1452 1451 1452 1454 1455 1456 1454 1458 1461 1462 1463 1463 1463 1464 1465 1467 1468 1469 1470 1472 1473 1474 1475 1475 1476 1477 1478 1478 1479 1479 1480 1480 1480 1481
1454 1455 1453 1451 1452 1449 1450 1449 1448 1454 1454 1453 1453 1454 1455 1455 1456 1459 1460 1461 1462 1462 1462 1463 1464 1465 1466 1467 1469 1470 1472 1472 1473 1473 1474 1475 1475 1476 1477 1477 1477 1478 1478 1478
1453 1452 1453 1451 1454 1456 1452 1451 1453 1455 1455 1454 1454 1455 1456 1457 1458 1458 1459 1460 1461 1461 1462 1463 1463 1464 1465 1466 1467 1468 1470 1471 1471 1471 1472 1472 1473 1474 1474 1474 1474 1475 1475 1476
1454 1454 1451 1452 1455 1456 1455 1456 1457 1457 1456 1455 1455 1456 1456 1457 1457 1458 1458 1459 1460 1460 1461 1462 1463 1463 1465 1466 1467 1467 1467 1469 1470 1470 1470 1470 1471 1471 1471 1472 1473 1473 1473 1474
1457 1459 1457 1455 1454 1456 1457 1457 1457 1457 1456 1456 1455 1455 1456 1456 1456 1457 1458 1458 1459 1459 1460 1461 1462 1463 1464 1464 1465 1466 1466 1467 1468 1468 1469 1469 1469 1469 1470 1470 1470 1471 1471 1471
1460 1460 1458 1457 1457 1457 1457 1458 1458 1457 1456 1456 1455 1455 1455 1456 1457 1457 1458 1458 1459 1459 1460 1460 1461 1462 1463 1463 1464 1465 1465 1465 1467 1467 1467 1468 1468 1468 1468 1467 1467 1467 1467 1468
1461 1462 1460 1458 1459 1459 1459 1458 1458 1457 1456 1455 1455 1455 1456 1456 1457 1457 1458 1458 1459 1459 1460 1460 1461 1462 1462 1463 1463 1464 1464 1464 1465 1466 1466 1467 1467 1466 1466 1465 1465 1464 1464 1464